Terminal Aerodrome Forecast
Issued by NWS

Home | Current Version | Previous Version | Graphics & Text | Print | Product List | Glossary On
Versions: 1 2 3 4 5 6 7 8 9 10 11 12 13 14 15 16 17 18 19 20 21
000
FTUS43 KBIS 261100
TAFMOT
TAF
KMOT 261125Z 2612/2712 25015KT P6SM SKC
     FM261400 25018G25KT P6SM SCT030
     FM261600 27023G33KT P6SM VCSH SCT030 BKN050
      TEMPO 2618/2622 -SHRA BKN030
     FM270200 30014KT P6SM BKN050=

USA.gov is the U.S. government's official web portal to all federal, state and local government web resources and services.